Regional Weather Roundup
Issued by NWS

Home | Current Version | Previous Version | Graphics & Text | Print | Product List | Glossary On
Versions: 1 2 3 4 5 6 7 8 9 10 11 12 13 14 15 16 17 18 19 20 21 22 23 24 25 26 27 28 29 30 31 32 33 34 35 36 37 38 39 40 41 42 43 44 45 46 47 48 49 50
676
ASUS45 KCYS 231410
RWRWY

WYOMING REGIONAL WEATHER ROUNDUP
NATIONAL WEATHER SERVICE CHEYENNE WY
800 AM MDT MON MAY 23 2016

NOTE:  "FAIR" INDICATES FEW OR NO CLOUDS BELOW 12,000 FEET
WITH NO SIGNIFICANT WEATHER AND/OR OBSTRUCTIONS TO VISIBILITY.

WYZ001-231500-
YELLOWSTONE NATIONAL PARK

CITY           SKY/WX    TMP DP  RH WIND       PRES   REMARKS
LK YELLOWSTONE   N/A     32  25  75 VRB6      29.95S WCI  26
W YELLOWSTONE  NOT AVBL

$$
WYZ002>013-054>058-071-098>099-231500-
NORTHERN WYOMING

CITY           SKY/WX    TMP DP  RH WIND       PRES   REMARKS
JACKSON        MOSUNNY   36  30  80 CALM      29.95F
CODY           FAIR      50  23  34 W13G24    29.82S
GREYBULL       FAIR      51  29  42 SE6       29.82R
WORLAND        FAIR      51  28  41 CALM      29.82S
SHERIDAN       FAIR      57  26  30 W8        29.77S
BUFFALO          N/A     55  33  43 CALM      29.80R
GILLETTE       FAIR      53  31  42 S15       29.79F
HULETT         FAIR      52  36  54 W3        29.83S
NEWCASTLE      FAIR      48  32  53 SE5       29.86S

$$
WYZ014>020-022>026-101>103-231500-
CENTRAL WYOMING

CITY           SKY/WX    TMP DP  RH WIND       PRES   REMARKS
BIG PINEY      FAIR      34  29  82 E3        29.98F
PINEDALE       FAIR      32  30  93 CALM      29.99F
DUBOIS         FAIR      39  23  52 N15G23    29.91F WCI  31
LANDER         FAIR      45  25  45 W6        29.88S
RIVERTON       FAIR      46  25  43 S3        29.90S
CASPER         FAIR      47  30  51 SW16      29.90S
DOUGLAS        FAIR      46  32  58 CALM      29.90F

$$
WYZ021-027>030-104>119-231500-
SOUTHERN WYOMING

CITY           SKY/WX    TMP DP  RH WIND       PRES   REMARKS
EVANSTON       PTSUNNY   36  29  75 CALM      30.00R
KEMMERER         N/A     36  32  87 N5        30.00S WCI  32
FORT BRIDGER   PTSUNNY   39  36  87 SW6       30.03R WCI  35
ROCK SPRINGS   FAIR      40  32  73 VRB3      29.99F
DIXON          FAIR      40  31  70 E5        30.04S
RAWLINS        FAIR      42  30  62 SW7       29.99F
SARATOGA       FAIR      41  30  65 S13       30.01F
LARAMIE        FAIR      42  29  59 SW13      29.98F
CHEYENNE       FAIR      51  30  44 NW17G26   29.94F
TORRINGTON     NOT AVBL
PINE BLUFFS    FAIR      52  36  54 W6        29.94S

$$




USA.gov is the U.S. government's official web portal to all federal, state and local government web resources and services.